TimeMDT,TemperatureF,Dew PointF,Humidity,Sea Level PressureIn,VisibilityMPH,Wind Direction,Wind SpeedMPH,Gust SpeedMPH,PrecipitationIn,Events,Conditions,WindDirDegrees,DateUTC
12:53 AM,21.9,15.1,75,30.44,10.0,SSW,11.5,-,N/A,,Clear,210,2013-04-23 06:53:00
1:53 AM,23.0,15.1,72,30.42,10.0,SSW,12.7,-,N/A,,Clear,200,2013-04-23 07:53:00
2:53 AM,21.0,14.0,74,30.40,10.0,SW,11.5,-,N/A,,Clear,220,2013-04-23 08:53:00
3:53 AM,23.0,15.8,74,30.21,10.0,SSW,13.8,-,N/A,,Clear,210,2013-04-23 09:53:00
4:53 AM,24.1,15.1,69,30.34,10.0,SSW,13.8,-,N/A,,Clear,210,2013-04-23 10:53:00
5:53 AM,24.1,14.0,65,30.33,10.0,SSW,15.0,-,N/A,,Clear,210,2013-04-23 11:53:00
6:53 AM,25.0,15.1,66,30.32,10.0,SSW,13.8,-,N/A,,Clear,210,2013-04-23 12:53:00
7:53 AM,28.9,17.1,61,30.31,10.0,SSW,13.8,-,N/A,,Clear,210,2013-04-23 13:53:00
8:53 AM,34.0,19.9,56,30.31,10.0,SW,15.0,-,N/A,,Clear,220,2013-04-23 14:53:00
9:53 AM,37.9,21.0,51,30.30,10.0,SW,12.7,20.7,N/A,,Clear,230,2013-04-23 15:53:00
10:53 AM,42.1,21.0,43,30.29,10.0,SW,10.4,-,N/A,,Clear,230,2013-04-23 16:53:00
11:53 AM,45.0,19.0,36,30.27,10.0,West,13.8,24.2,N/A,,Clear,270,2013-04-23 17:53:00
12:53 PM,46.9,19.0,33,30.26,10.0,West,12.7,19.6,N/A,,Clear,270,2013-04-23 18:53:00
1:53 PM,48.0,18.0,30,30.23,10.0,WNW,12.7,-,N/A,,Partly Cloudy,300,2013-04-23 19:53:00
2:53 PM,46.9,18.0,32,30.24,10.0,WNW,16.1,-,N/A,,Scattered Clouds,300,2013-04-23 20:53:00
3:53 PM,46.0,19.9,35,30.24,10.0,NW,13.8,-,N/A,,Overcast,310,2013-04-23 21:53:00
4:53 PM,46.9,21.0,36,30.22,10.0,NNW,11.5,18.4,N/A,,Overcast,340,2013-04-23 22:53:00
5:53 PM,46.9,18.0,32,30.22,10.0,NW,15.0,-,N/A,,Mostly Cloudy,320,2013-04-23 23:53:00
6:53 PM,44.1,19.0,37,30.22,10.0,WNW,9.2,-,N/A,,Scattered Clouds,300,2013-04-24 00:53:00
7:53 PM,43.0,19.0,38,30.22,10.0,NW,11.5,-,N/A,,Clear,310,2013-04-24 01:53:00
8:53 PM,37.0,21.9,54,30.24,10.0,NW,5.8,-,N/A,,Partly Cloudy,320,2013-04-24 02:53:00
9:53 PM,35.1,21.9,59,30.25,10.0,West,8.1,-,N/A,,Clear,280,2013-04-24 03:53:00
10:53 PM,33.1,23.0,66,30.25,10.0,West,10.4,-,N/A,,Scattered Clouds,260,2013-04-24 04:53:00
11:53 PM,33.1,24.1,70,30.27,10.0,North,8.1,-,N/A,,Overcast,350,2013-04-24 05:53:00